Home   Weather   Grand Rapids   Past weeks

Flag for USA Past Weather in Grand Rapids, Michigan, USA — Yesterday and Last 2 Weeks

Now
42 °F

Passing clouds.


Feels Like: 38 °F
Forecast: 30 / 53 °F
Wind: 7 mph from Southwest

Location: Kent County International Airport

Current Time: Oct 18, 2018 at 11:58:51 am

Latest Report: Oct 18, 2018 at 10:53 am


Visibility: 10 mi

Pressure: 30.54 "Hg

Humidity: 60%

Dew Point: 29 °F

Location of Grand RapidsLocation

Past Weather in Grand Rapids — Graph

°F

Grand Rapids Temperature Yesterday

Maximum temperature yesterday: 51 °F (at 1:53 am)
Minimum temperature yesterday: 38 °F (at 11:53 pm)
Average temperature yesterday: 44 °F

High & Low Weather Summary for the Past Weeks

 TemperatureHumidityPressure
High83 °F (Oct 3, 3:53 pm)100% (Oct 5, 10:53 pm)30.54 "Hg (Oct 5, 10:53 pm)
Low27 °F (Oct 18, 7:53 am)42% (Oct 17, 4:53 pm)29.59 "Hg (Oct 10, 8:53 pm)
Average55 °F79%30.02 "Hg
* Reported Oct 3 10:53 am — Oct 18 10:53 am, Grand Rapids. Weather by CustomWeather, © 2018

Note: Actual official high and low records may vary slightly from our data, if they occured in-between our weather recording intervals... More about our weather records

Advertising

Grand Rapids Weather History for the Previous 24 Hours

Scroll right to see more
 ConditionsComfort  
Time TempWeatherWind HumidityBarometerVisibility
10:53 am
Thu, Oct 18
42 °FPassing clouds.7 mph60%30.54 "Hg10 mi
9:53 am37 °FPassing clouds.7 mph76%30.53 "Hg10 mi
8:53 am30 °FPassing clouds.5 mph89%30.53 "Hg10 mi
7:53 am27 °FClear.No wind89%30.52 "Hg10 mi
6:53 am28 °FClear.3 mph89%30.51 "Hg10 mi
5:53 am30 °FClear.3 mph85%30.50 "Hg10 mi
4:53 am30 °FClear.3 mph89%30.49 "Hg10 mi
3:53 am30 °FClear.No wind85%30.49 "Hg10 mi
2:53 am31 °FClear.No wind85%30.48 "Hg10 mi
1:53 am30 °FClear.No wind89%30.47 "Hg10 mi
12:53 am34 °FClear.No wind76%30.45 "Hg10 mi
11:53 pm
Wed, Oct 17
38 °FClear.3 mph63%30.44 "Hg10 mi
10:53 pm39 °FClear.3 mph60%30.42 "Hg10 mi
9:53 pm40 °FClear.7 mph60%30.41 "Hg10 mi
8:53 pm41 °FPassing clouds.6 mph55%30.38 "Hg10 mi
7:53 pm42 °FPassing clouds.6 mph53%30.34 "Hg10 mi
6:53 pm43 °FScattered clouds.10 mph49%30.32 "Hg10 mi
5:53 pm45 °FPartly sunny.20 mph42%30.31 "Hg10 mi
4:53 pm45 °FScattered clouds.18 mph42%30.29 "Hg10 mi
3:53 pm45 °FPartly sunny.16 mph45%30.27 "Hg10 mi
2:53 pm46 °FPartly sunny.20 mph44%30.24 "Hg10 mi
1:53 pm48 °FPartly sunny.18 mph44%30.22 "Hg10 mi
12:53 pm44 °FPartly sunny.16 mph53%30.21 "Hg10 mi
11:53 am43 °FMostly cloudy.18 mph62%30.19 "Hg10 mi
Weather by CustomWeather, © 2018

See weather overview